Whitehorse, Yukon Territory

5:48 AM PDT on May 24, 2017 (GMT -0700)
Whitehorse

Weather History for CYXY - February, 2014

Change the Weather History Date:

Thursday, February 20, 2014

  Actual Average Record
Temperature  
Mean Temperature -8 °F -  
Max Temperature 5 °F 25 °F 41 °F (2004)
Min Temperature -20 °F 5 °F -20 °F (2003)
Degree Days  
Heating Degree Days 72    
Moisture  
Dew Point -15 °F    
Average Humidity 70    
Maximum Humidity 78    
Minimum Humidity 47    
Precipitation  
Precipitation 0.00 in 0.02 in - ()
Sea Level Pressure  
Sea Level Pressure 30.03 in    
Wind  
Wind Speed 3 mph ()    
Max Wind Speed 9 mph    
Max Gust Speed -    
Visibility 12.7 miles    
Events      
Averages and records for this station are not official NWS values.
T = Trace of Precipitation, MM = Missing Value Source: Averaged Metar Reports

Daily Weather History Graph

Daily Weather History Graph

Search for Another Location

Airport or City:

Trip Planner

Search our weather history database for the weather conditions in past years. The results will help you decide how hot, cold, wet, or windy it might be!

Date:

Astronomy

Feb. 20, 2014 Rise Set
Actual Time 8:26 AM PST 6:03 PM PST
Civil Twilight 7:42 AM PST 6:47 PM PST
Nautical Twilight 6:52 AM PST 7:36 PM PST
Astronomical Twilight 6:03 AM PST 8:25 PM PST
Moon 12:33 AM PST (2/20) 9:37 AM PST (2/20)
Length of Visible Light 11h 04m
Length of Day
9h 36m
Waning Gibbous, 70% of the Moon is Illuminated
Feb 20
Waning Gibbous
Feb 22
Last Quarter
Mar 1
New
Mar 8
First Quarter
Mar 16
Full

Hourly Weather History & Observations

Time (PST) Temp. Windchill Dew Point Humidity Pressure Visibility Wind Dir Wind Speed Gust Speed Precip Events Conditions
12:00 AM -9.4 °F - -14.8 °F 77% 29.81 in 40.0 mi West 2.3 mph - N/A   Clear
1:00 AM -13.0 °F - -18.4 °F 77% 29.82 in 40.0 mi Calm Calm - N/A   Clear
2:00 AM -13.0 °F - -20.2 °F 70% 29.83 in 40.0 mi SW 2.3 mph - N/A   Clear
3:00 AM -14.8 °F - -20.2 °F 77% 29.84 in 40.0 mi Calm Calm - N/A   Clear
4:00 AM -16 °F - -22 °F 59% 29.86 in 37 mi North 1.2 mph - -  
4:00 AM -16.6 °F - -22.0 °F 76% 29.86 in 40.0 mi Calm Calm - N/A   Clear
5:00 AM -16.6 °F - -23.8 °F 70% 29.86 in 40.0 mi Calm Calm - N/A   Clear
6:00 AM -16.6 °F - -23.8 °F 70% 29.89 in 40.0 mi Calm Calm - N/A   Clear
7:00 AM -20.2 °F - -27.4 °F 69% 29.92 in 40.0 mi Calm Calm - N/A   Clear
8:00 AM -20.2 °F - -27.4 °F 69% 29.95 in 40.0 mi Calm Calm - N/A   Clear
9:00 AM -18.4 °F - -25.6 °F 70% 29.97 in 40.0 mi NW 2.3 mph - N/A   Partly Cloudy
10:00 AM -17 °F - -23 °F 61% 30.00 in 37 mi NNW 3.5 mph - -  
10:00 AM -16.6 °F -29.3 °F -22.0 °F 76% 30.00 in 40.0 mi NNW 4.6 mph - N/A   Partly Cloudy
11:00 AM -11.2 °F -24.8 °F -16.6 °F 77% 30.01 in 25.0 mi NNW 5.8 mph - N/A   Mostly Cloudy
11:46 AM -5.8 °F -16.7 °F -13.0 °F 71% 30.03 in 10.0 mi NNW 4.6 mph - N/A   Mostly Cloudy
12:00 PM -5.8 °F -21.2 °F -11.2 °F 77% 30.04 in 6.0 mi NW 8.1 mph - N/A   Overcast
1:00 PM -2.2 °F -14.2 °F -7.6 °F 78% 30.05 in 30.0 mi NNW 5.8 mph - N/A   Scattered Clouds
2:00 PM -0.4 °F -14.7 °F -5.8 °F 78% 30.06 in 40.0 mi NNW 8.1 mph - N/A   Clear
3:00 PM 3.2 °F -11.3 °F -5.8 °F 66% 30.08 in 40.0 mi NW 9.2 mph - N/A   Clear
4:00 PM 5 °F - -5 °F 47% 30.10 in 37 mi NNW 6.9 mph - -  
4:00 PM 5.0 °F -6.9 °F -5.8 °F 61% 30.09 in 40.0 mi NNW 6.9 mph - N/A   Clear
5:00 PM 3.2 °F -10.3 °F -4.0 °F 72% 30.12 in 40.0 mi NW 8.1 mph - N/A   Clear
6:00 PM 3.2 °F -11.3 °F -5.8 °F 66% 30.14 in 40.0 mi NW 9.2 mph - N/A   Clear
7:00 PM -2.2 °F -18.0 °F -9.4 °F 71% 30.18 in 25.0 mi West 9.2 mph - N/A   Clear
8:00 PM -4.0 °F -20.2 °F -11.2 °F 71% 30.21 in 15.0 mi West 9.2 mph - N/A   Clear
9:00 PM -5.8 °F -21.2 °F -13.0 °F 71% 30.23 in 40.0 mi West 8.1 mph - N/A   Clear
10:00 PM -7 °F - -13 °F 63% 30.25 in 34 mi West 9.2 mph - -  
10:00 PM -5.8 °F -21.2 °F -13.0 °F 71% 30.25 in 35.0 mi West 8.1 mph - N/A   Partly Cloudy
11:00 PM -7.6 °F -22.1 °F -14.8 °F 71% 30.26 in 30.0 mi West 6.9 mph - N/A   Scattered Clouds
11:34 PM -9.4 °F - -14.8 °F 77% 30.27 in 20.0 mi NW 2.3 mph - N/A   Mostly Cloudy